This is the latest recevied weather packets stored in our database for station/object NM5PB-13. If no packets are shown the sender has not sent any weather packets the latest 1 day(s).
| Time | Temp. | Humidity | Pressure | Rain* | Wind** | Luminosity | Snow |
|---|---|---|---|---|---|---|---|
| 1778016182 | 15.56° C | 39% | 1009 hPa | 0 mm | 0.45 m/s, 98° | - | - |
| 1778015279 | 15° C | 39% | 1009 hPa | 0 mm | 0.89 m/s, 73° | - | - |
| 1778014384 | 15.56° C | 40% | 1009 hPa | 0 mm | 0.45 m/s, 88° | - | - |
| 1778013470 | 15.56° C | 39% | 1009 hPa | 0 mm | 0 m/s | - | - |
| 1778012568 | 15° C | 39% | 1009 hPa | 0 mm | 0.45 m/s, 135° | - | - |
| 1778011664 | 15.56° C | 40% | 1009 hPa | 0 mm | 0.45 m/s, 88° | - | - |
| 1778010759 | 15° C | 40% | 1010 hPa | 0 mm | 0.45 m/s, 96° | - | - |
| 1778009855 | 15° C | 40% | 1010 hPa | 0 mm | 0.45 m/s, 106° | - | - |
| 1778008953 | 14.44° C | 39% | 1010 hPa | 0 mm | 0.45 m/s, 135° | - | - |
| 1778008045 | 14.44° C | 38% | 1010 hPa | 0 mm | 0.45 m/s, 80° | - | - |
| 1778007142 | 14.44° C | 40% | 1010 hPa | 0 mm | 0.45 m/s, 124° | - | - |
| 1778006239 | 15° C | 40% | 1010 hPa | 0 mm | 0.45 m/s, 99° | - | - |
| 1778005337 | 14.44° C | 38% | 1010 hPa | 0 mm | 0.45 m/s, 201° | - | - |
| 1778004431 | 14.44° C | 39% | 1010 hPa | 0 mm | 0.45 m/s, 212° | - | - |
| 1778003529 | 14.44° C | 38% | 1010 hPa | 0 mm | 0.45 m/s, 205° | - | - |
| 1778002624 | 13.89° C | 42% | 1010 hPa | 0 mm | 0.45 m/s, 111° | - | - |
| 1778001717 | 13.33° C | 40% | 1010 hPa | 0 mm | 0 m/s | - | - |
| 1778000814 | 12.78° C | 39% | 1010 hPa | 0 mm | 0 m/s | - | - |
| 1777999911 | 13.89° C | 41% | 1010 hPa | 0 mm | 0.45 m/s, 131° | - | - |
| 1777999008 | 12.78° C | 41% | 1011 hPa | 0 mm | 0.45 m/s, 120° | - | - |
| 1777998100 | 12.22° C | 41% | 1010 hPa | 0 mm | 0.45 m/s, 118° | - | - |
| 1777997194 | 12.22° C | 42% | 1010 hPa | 0 mm | 0.45 m/s, 152° | - | - |
| 1777996291 | 12.22° C | 41% | 1010 hPa | 0 mm | 0.45 m/s, 100° | - | - |
| 1777995388 | 11.67° C | 42% | 1010 hPa | 0 mm | 0.45 m/s, 224° | - | - |
| 1777994480 | 11.11° C | 42% | 1010 hPa | 0 mm | 0 m/s | - | - |
* Rain latest hour (hover to see other rain measurements)
** Current wind speed in m/s (hover to see current wind gust speed)